Regional Weather Roundup
Issued by NWS

Home | Current Version | Previous Version | Graphics & Text | Print | Product List | Glossary Off
Versions: 1 2 3 4 5 6 7 8 9 10 11 12 13 14 15 16 17 18 19 20 21 22 23 24 25 26 27 28 29 30 31 32 33 34 35 36 37 38 39 40 41 42 43 44 45 46 47 48 49 50

406
ASUS43 KMKX 240800
RWRWI

WISCONSIN REGIONAL WEATHER ROUNDUP
NATIONAL WEATHER SERVICE MILWAUKEE/SULLIVAN WI
200 AM CST FRI NOV 24 2017

NOTE: "FAIR" INDICATES FEW OR NO CLOUDS BELOW 12,000 FEET WITH NO
SIGNIFICANT WEATHER AND/OR OBSTRUCTIONS TO VISIBILITY.

WIZ001-002-006>008-014>016-023>028-240900-
NORTHWEST WISCONSIN

CITY           SKY/WX    TMP DP  RH WIND       PRES   REMARKS
SUPERIOR ARPT  CLEAR     40  31  71 SW8       29.40F WCI  35
ASHLAND        CLEAR     42  29  59 SW16      29.40F
HAYWARD        CLOUDY    41  30  65 S12       29.47F
SIREN          CLOUDY    45  33  61 S8        29.47F
CUMBERLAND     CLOUDY    36  28  75 S7        29.52F WCI  30
RICE LAKE      CLOUDY    37  29  74 SE6       29.54F WCI  32
CHETEK         CLOUDY    38  29  70 SE7       29.53F WCI  33
LADYSMITH      CLOUDY    40  28  64 S8        29.56F WCI  34
EAU CLAIRE     NOT AVBL
MENOMONIE      PTCLDY    44  32  62 S8        29.55F
NEW RICHMOND   PTCLDY    44  32  62 S9        29.52F
OSCEOLA        CLOUDY    43  32  65 S8        29.54F
$$

WIZ003>005-009-010-017-018-240900-
NORTH CENTRAL WISCONSIN

CITY           SKY/WX    TMP DP  RH WIND       PRES   REMARKS
MANITOWISH WTR CLOUDY    39  28  64 SW15G21   29.50F WCI  30
ARBOR VITAE    CLOUDY    38  28  67 SW10      29.52F WCI  31
WOODRUFF       CLOUDY    38  28  67 SW10      29.52F WCI  31
RHINELANDER    CLOUDY    38  27  64 SW12G24   29.54F WCI  30
EAGLE RIVER    CLOUDY    39  25  57 SW9G18    29.52F WCI  33
LAND O LAKES   CLOUDY    39  27  62 SW8       29.51F WCI  33
PHILLIPS       CLOUDY    40  29  64 SW8G17    29.53F WCI  35
TOMAHAWK       CLOUDY    36  26  65 S3        29.56F
MEDFORD        CLOUDY    37  27  66 S12       29.57F WCI  30
MERRILL        CLOUDY    37  26  63 SW7       29.61F WCI  32
$$

WIZ029-030-035-036-043>047-240900-
CENTRAL WISCONSIN

CITY           SKY/WX    TMP DP  RH WIND       PRES   REMARKS
WAUSAU         MOCLDY    36  26  67 S10       29.60F WCI  28
MOSINEE        MOCLDY    34  27  75 S10       29.64F WCI  26
MARSHFIELD     PTCLDY    36  25  64 S9        29.59F WCI  29
STEVENS POINT  CLOUDY    34  24  68 S8        29.66F WCI  27
WAUPACA        CLEAR     34  25  68 S3        29.68F
WAUTOMA        PTCLDY    33  24  69 S6        29.69F WCI  28
WISC RAPIDS    MOCLDY    38  27  64 S8        29.65F WCI  32
CAMP DOUGLAS   PTCLDY    43  29  58 S9        29.65F
$$

WIZ011>013-019>022-031-037>040-048>050-240900-
NORTHEAST WISCONSIN

CITY           SKY/WX    TMP DP  RH WIND       PRES   REMARKS
ANTIGO         CLOUDY    37  26  66 SW13G18   29.61F WCI  28
SHAWANO        CLOUDY    38  25  61 SW5       29.66F WCI  34
OCONTO         CLOUDY    36  26  67 CALM      29.66S
STURGEON BAY   CLOUDY    36  25  64 S12       29.67F WCI  28
GREEN BAY      CLEAR     36  28  73 S10       29.68F WCI  28
MANITOWOC      CLOUDY    33  25  72 S8        29.71F WCI  26
APPLETON       CLEAR     34  25  69 SW15      29.68F WCI  24
CLINTONVILLE   CLEAR     34  25  69 S7        29.67F WCI  28
OSHKOSH        CLEAR     38  27  64 SW14G20   29.69F WCI  30
$$

WIZ032>034-041-042-053>061-240900-
SOUTHWEST WISCONSIN

CITY           SKY/WX    TMP DP  RH WIND       PRES   REMARKS
LA CROSSE      PTCLDY    42  30  62 S13       29.63F
SPARTA         PTCLDY    44  31  61 S6        29.66F
VIROQUA        PTCLDY    41  32  69 S15G21    29.68F
BOSCOBEL       PTCLDY    29  25  85 CALM      29.72F
PRAIRIE DU CHI MOCLDY    43  29  58 CALM      29.72F
PLATTEVILLE    CLEAR     36  30  78 S10       29.76F WCI  29
$$

WIZ056-057-062-063-064-067-068-240900-
SOUTH CENTRAL WISCONSIN

CITY           SKY/WX    TMP DP  RH WIND       PRES   REMARKS
REEDSBURG      CLEAR     38  28  68 SW7       29.70F WCI  33
BARABOO/DELLS  CLEAR     40  28  62 SW13      29.70F WCI  32
LONE ROCK      NOT AVBL
MINERAL POINT  PTCLDY    36  32  87 S8        29.75F WCI  29
MADISON        CLEAR     37  27  67 S7        29.74F WCI  32
MIDDLETON      CLEAR     38  29  68 SW6       29.76S WCI  34
WATERTOWN      CLEAR     32  28  83 S5        29.77F WCI  27
MONROE         CLEAR     34  28  80 SW13      29.76F WCI  25
JANESVILLE     CLEAR     34  28  80 S7        29.79S WCI  28
$$

WIZ051-052-058>065-066-070>072-240900-
SOUTHEAST WISCONSIN

CITY           SKY/WX    TMP DP  RH WIND       PRES   REMARKS
MILWAUKEE      PTCLDY    36  27  69 SW10      29.78F WCI  28
WAUKESHA       CLEAR     32  25  74 SW7       29.79S WCI  26
MILWAUKEE/TIMM CLEAR     32  23  69 SW3       29.78F
RACINE         CLEAR     35  27  72 SW9       29.81F WCI  28
BURLINGTON     CLOUDY    32  30  94 S3        29.80S
KENOSHA        CLEAR     35  26  69 SW9       29.80F WCI  28
FOND DU LAC    CLEAR     39  26  59 SW15G24   29.71F WCI  31
SHEBOYGAN      PTCLDY    34  27  75 SW9       29.72F WCI  27
WEST BEND      CLEAR     34  28  80 SW6       29.75F WCI  29
JUNEAU         MOCLDY    33  26  76 S10       29.75F WCI  25
$$

LSZ147-162-240900-
LAKE SUPERIOR

STATION/POSITION TIME  TEMP    WIND        PRES    WAVE
                       AIR SEA DIR/SP/G            HT/PER
                 (UTC) (F)     (DEG/KT/KT) (MB)    (FT/S)
DEVILS ISLAND    0700   40     200/  8/ 10  995.9F
SAXON HARBOR     0740   48     200/ 14/ 26  994.9F
$$

LMZ867-665-643>646-240900-
LAKE MICHIGAN

STATION/POSITION TIME  TEMP    WIND        PRES    WAVE
                       AIR SEA DIR/SP/G            HT/PER
                 (UTC) (F)     (DEG/KT/KT) (MB)    (FT/S)
N MID LAKE BUOY  0650   44 47  200/ 23/ 27 1006.1F   5/ 5
NORTHPORT PIER   0740   38     170/  4/ 12 1004.7F
KEWAUNEE LAKESHO 0730   36     200/  7/  8 1005.5F
SHEBOYGAN LAKESH 0700   37     200/ 10/ 11 1008.1F
PORT WASHINGTON  0740   35     190/  5/  6 1008.8F
MILWAUKEE LAKESH 0730   38     220/  9/ 10   N/A
S MID LAKE BUOY  0650   44 47  240/ 16/ 17 1010.6F   2/ 4
KENOSHA   LAKESH 0700   38     200/  7/ 10 1009.8
$$

TC  - TEMPERATURE IN CELSIUS
VSB - VISIBILITY IN STATUTE MILES
WCI - WIND CHILL INDEX
HX  - HEAT INDEX





USA.gov is the U.S. government's official web portal to all federal, state and local government web resources and services.